COSMOS 2288 (GLONASS)

Satellite information

Favourite Embed

Satellite Type and Status

PAYLOADIN ORBIT

Key statistics

Satellite COSMOS 2288 (GLONASS) at a glance.

Uptime

11395

Days in orbit

Revolutions

≈ 2.1

Per day

Orbit

MEO

Medium Earth Orbit

Inclination

65.4

Latest

Satellite identification and parameters

Extended collection of information and parameters for COSMOS 2288 (GLONASS).

Object identification

Identified? True

Debris? False

Object name: COSMOS 2288 (GLONASS)

International designator: 1994-050C

Object number (NORAD): 23205

Object ID (CCSDS): 23205

Country: COMMONWEALTH OF INDEPENDENT STATES (CIS)

Current information (Y/N): Y

RCS size: LARGE

Orbital parameters

Period: 675.734 minutes

Inclination: 65.4114 deg

SMA: 25508.065 km

Apoapsis: 19134.793 km

Periapsis: 19125.067 km

RAAN: 209.9681 deg

Eccentricy: 0.00019064

Argument of periapsis: 302.3301 deg

Mean anomaly: 134.6453 deg

Mean motion: 2.13101487 rev/day

Mean motion (dot): -0.00000024 rev/day2

B* drag term: 0.0 1/REarth

Two-line elements (TLE)

Creation date: Oct. 19, 2025, 10:30 a.m.

Reference frame: TEME

Reference center: EARTH

Epoch: Oct. 19, 2025, 2:04 a.m. UTC

TLE line 0: 0 COSMOS 2288 (GLONASS)

TLE line 1: 1 23205U 94050C 25292.08669073 -.00000024 00000-0 00000-0 0 9996

TLE line 2: 2 23205 65.4114 209.9681 0001906 302.3301 134.6453 2.13101487242694

Live tracking on map

Real-time ground track for satellite COSMOS 2288 (GLONASS).

In-orbit conjunctions

A list of the most updated potential collisions computed for object COSMOS 2288 (GLONASS).

Target Orbit TCA Probability of collision Miss distance Type
COSMOS 2294 (GLONASS) MEO 2025-10-23 00:50:03 TBA 4544.0 (m) PAYLOAD
COSMOS 2294 (GLONASS) MEO 2025-10-22 13:34:18 TBA 3552.0 (m) PAYLOAD
COSMOS 2294 (GLONASS) MEO 2025-10-22 02:18:34 TBA 2434.0 (m) PAYLOAD
COSMOS 2294 (GLONASS) MEO 2025-10-21 15:02:50 TBA 1263.0 (m) PAYLOAD
COSMOS 2294 (GLONASS) MEO 2025-10-21 03:47:05 TBA 418.0 (m) PAYLOAD

Associated space launch

GLONASS navigation satellites

COSMOS 2288 (GLONASS) was lifted into orbit during the mission ‘Proton | Uragan 57 to 59’, on board a Proton space rocket.

The launch took place on Aug. 11, 1994, 3:27 p.m. from 81/23 (81L).

For more information about the launch, click the button.

Launch to space Proton | Uragan 57 to 59
Proton | Uragan 57 to 59

Agency: N/A

Status: Launch Successful

Launch date: Aug. 11, 1994, 3:27 p.m. UTC

Rocket: Proton

Launch pad: 81/23 (81L)

Location: Baikonur Cosmodrome, Republic of Kazakhstan

...

Latest news about this satellite

There are no fresh news available about this satellite. Check back as we update our databases every day.


Newsletter sign-up

Weekly statistics, charts and insights to help you stay on top of the space industry.